Weather History for KIJX - May, 2014

Change the Weather History Date:

Sunday, May 25, 2014

  Actual Average (KSPI) Record (KSPI)
Temperature  
Mean Temperature 72 °F 66 °F  
Max Temperature 79 °F 77 °F 95 °F (1967)
Min Temperature 65 °F 56 °F 35 °F (1925)
Degree Days  
Heating Degree Days 0 2  
Month to date heating degree days 114  
Since 1 July heating degree days 5459  
Cooling Degree Days 7 4  
Month to date cooling degree days 58  
Year to date cooling degree days 78  
Growing Degree Days 22 (Base 50)    
Moisture  
Dew Point 60 °F    
Average Humidity 68    
Maximum Humidity 82    
Minimum Humidity 58    
Precipitation  
Precipitation 0.00 in 0.15 in 2.36 in (1909)
Month to date precipitation 3.39  
Year to date precipitation 13.16  
Snow  
Snow 0.00 in 0.00 in 0.00 in ()
Month to date snowfall 0.0  
Since 1 July snowfall 20.9  
Snow Depth -    
Sea Level Pressure  
Sea Level Pressure 30.09 in    
Wind  
Wind Speed 5 mph (SE)    
Max Wind Speed 10 mph    
Max Gust Speed 16 mph    
Visibility 10 miles    
Events Rain    
T = Trace of Precipitation, MM = Missing Value Source: NWS Daily Summary

Daily Weather History Graph

Daily Weather History Graph

Search for Another Location

Airport or City:

Trip Planner

Search our weather history database for the weather conditions in past years. The results will help you decide how hot, cold, wet, or windy it might be!

Date:

Astronomy

May. 25, 2014 Rise Set
Actual Time 5:38 AM CDT 8:17 PM CDT
Civil Twilight 5:07 AM CDT 8:49 PM CDT
Nautical Twilight 4:27 AM CDT 9:28 PM CDT
Astronomical Twilight 3:43 AM CDT 10:13 PM CDT
Moon 3:42 AM CDT (5/25) 5:18 PM CDT (5/25)
Length of Visible Light 15h 42m
Length of Day
14h 39m
Waning Crescent, 10% of the Moon is Illuminated
May 25
Waning Crescent
May 28
New
Jun 5
First Quarter
Jun 12
Full
Jun 19
Last Quarter

Hourly Weather History & Observations

Time (CDT) Temp. Dew Point Humidity Pressure Visibility Wind Dir Wind Speed Gust Speed Precip Events Conditions
12:15 AM 68.9 °F 57.7 °F 68% 30.11 in 10.0 mi Calm Calm - N/A   Scattered Clouds
12:35 AM 68.4 °F 58.3 °F 70% 30.10 in 10.0 mi East 3.5 mph - N/A   Scattered Clouds
12:55 AM 68.2 °F 57.9 °F 70% 30.10 in 10.0 mi East 4.6 mph - N/A   Mostly Cloudy
1:15 AM 68.9 °F 57.0 °F 66% 30.10 in 10.0 mi East 3.5 mph - N/A   Overcast
1:35 AM 68.9 °F 56.5 °F 65% 30.10 in 10.0 mi SE 3.5 mph - N/A   Overcast
1:55 AM 69.1 °F 56.3 °F 64% 30.10 in 10.0 mi Calm Calm - N/A   Overcast
2:15 AM 68.2 °F 57.7 °F 69% 30.09 in 10.0 mi East 8.1 mph - N/A   Overcast
2:35 AM 68.5 °F 56.3 °F 65% 30.09 in 10.0 mi ESE 5.8 mph - N/A   Overcast
2:55 AM 68.5 °F 55.6 °F 63% 30.09 in 10.0 mi SE 5.8 mph - N/A   Mostly Cloudy
3:15 AM 68.5 °F 55.6 °F 63% 30.09 in 10.0 mi ESE 4.6 mph - N/A   Scattered Clouds
3:35 AM 68.2 °F 55.9 °F 65% 30.09 in 10.0 mi ESE 4.6 mph - N/A   Overcast
3:55 AM 67.8 °F 56.3 °F 67% 30.10 in 10.0 mi East 5.8 mph - N/A   Overcast
4:15 AM 67.6 °F 56.3 °F 67% 30.09 in 10.0 mi ESE 4.6 mph - N/A   Mostly Cloudy
4:35 AM 68.0 °F 55.9 °F 65% 30.10 in 10.0 mi East 4.6 mph - N/A   Mostly Cloudy
4:55 AM 66.6 °F 57.2 °F 72% 30.10 in 10.0 mi ENE 5.8 mph - N/A   Overcast
5:15 AM 66.7 °F 57.2 °F 71% 30.11 in 10.0 mi ENE 6.9 mph - N/A   Overcast
5:35 AM 67.1 °F 57.2 °F 70% 30.13 in 10.0 mi SE 3.5 mph - N/A Rain Light Rain
5:55 AM 66.4 °F 58.1 °F 75% 30.13 in 10.0 mi ESE 4.6 mph - N/A   Drizzle
6:15 AM 65.7 °F 59.0 °F 79% 30.13 in 10.0 mi East 8.1 mph - N/A Rain Light Rain
6:35 AM 65.5 °F 59.2 °F 80% 30.13 in 10.0 mi East 8.1 mph - N/A   Mostly Cloudy
6:55 AM 66.4 °F 58.5 °F 76% 30.13 in 10.0 mi SSE 5.8 mph - N/A   Mostly Cloudy
7:15 AM 66.0 °F 58.8 °F 78% 30.13 in 10.0 mi SE 5.8 mph - N/A   Overcast
7:35 AM 66.6 °F 58.3 °F 75% 30.13 in 10.0 mi SSE 6.9 mph - N/A   Overcast
7:55 AM 66.9 °F 58.6 °F 75% 30.13 in 10.0 mi SE 6.9 mph - N/A   Overcast
8:15 AM 67.3 °F 59.0 °F 75% 30.13 in 10.0 mi SSE 8.1 mph - N/A   Mostly Cloudy
8:35 AM 67.8 °F 59.2 °F 74% 30.13 in 10.0 mi SSE 6.9 mph - N/A   Mostly Cloudy
8:55 AM 69.1 °F 59.7 °F 72% 30.13 in 10.0 mi SSE 3.5 mph - N/A   Scattered Clouds
9:35 AM 71.6 °F 62.6 °F 73% 30.13 in 10.0 mi SE 6.9 mph - N/A   Mostly Cloudy
9:55 AM 71.8 °F 61.7 °F 70% 30.13 in 10.0 mi South 10.4 mph - N/A   Scattered Clouds
10:15 AM 71.6 °F 60.4 °F 68% 30.13 in 10.0 mi South 9.2 mph - N/A   Scattered Clouds
10:35 AM 70.7 °F 60.8 °F 71% 30.14 in 10.0 mi SSE 9.2 mph - N/A   Mostly Cloudy
10:55 AM 71.1 °F 60.4 °F 69% 30.14 in 10.0 mi SSE 6.9 mph - N/A   Mostly Cloudy
11:15 AM 71.6 °F 60.4 °F 68% 30.14 in 10.0 mi SSE 8.1 mph - N/A   Mostly Cloudy
11:35 AM 71.1 °F 60.4 °F 69% 30.14 in 10.0 mi SSE 4.6 mph - N/A   Mostly Cloudy
11:55 AM 71.6 °F 59.7 °F 66% 30.13 in 10.0 mi SSE 8.1 mph - N/A   Mostly Cloudy
12:15 PM 72.0 °F 60.1 °F 66% 30.13 in 10.0 mi SE 9.2 mph - N/A   Mostly Cloudy
12:35 PM 72.0 °F 59.9 °F 66% 30.12 in 10.0 mi SSE 10.4 mph - N/A   Scattered Clouds
12:55 PM 71.6 °F 60.3 °F 67% 30.12 in 10.0 mi SSE 8.1 mph - N/A   Scattered Clouds
1:15 PM 71.6 °F 61.5 °F 70% 30.11 in 10.0 mi SE 8.1 mph - N/A   Clear
1:35 PM 73.2 °F 62.6 °F 69% 30.11 in 10.0 mi SE 10.4 mph - N/A   Clear
1:55 PM 75.4 °F 62.8 °F 65% 30.10 in 10.0 mi SSE 10.4 mph - N/A   Clear
2:15 PM 75.7 °F 63.0 °F 64% 30.10 in 10.0 mi SE 9.2 mph - N/A   Clear
2:35 PM 76.1 °F 62.8 °F 63% 30.09 in 10.0 mi SE 9.2 mph - N/A   Clear
2:55 PM 76.5 °F 63.1 °F 63% 30.09 in 10.0 mi SSE 6.9 mph - N/A   Clear
3:15 PM 77.2 °F 63.3 °F 62% 30.08 in 10.0 mi SSE 6.9 mph - N/A   Clear
3:35 PM 77.2 °F 63.1 °F 62% 30.08 in 10.0 mi SE 9.2 mph - N/A   Clear
3:55 PM 77.4 °F 63.1 °F 61% 30.07 in 10.0 mi SSE 9.2 mph - N/A   Clear
4:15 PM 77.9 °F 63.7 °F 61% 30.06 in 10.0 mi SE 9.2 mph - N/A   Clear
4:35 PM 79.0 °F 63.7 °F 59% 30.05 in 10.0 mi SE 10.4 mph - N/A   Clear
4:55 PM 78.8 °F 63.1 °F 59% 30.05 in 10.0 mi SE 8.1 mph - N/A   Clear
5:15 PM 78.8 °F 63.7 °F 60% 30.05 in 10.0 mi SSE 8.1 mph - N/A   Clear
5:35 PM 79.0 °F 63.7 °F 59% 30.05 in 10.0 mi SSE 8.1 mph - N/A   Clear
5:55 PM 79.0 °F 63.3 °F 59% 30.04 in 10.0 mi SSE 9.2 mph - N/A   Clear
6:15 PM 78.1 °F 62.8 °F 59% 30.03 in 10.0 mi South 6.9 mph - N/A   Clear
6:35 PM 78.4 °F 62.8 °F 58% 30.02 in 10.0 mi SSE 9.2 mph - N/A   Clear
6:55 PM 77.4 °F 61.9 °F 59% 30.03 in 10.0 mi SSE 8.1 mph 16.1 mph N/A   Clear
7:15 PM 76.6 °F 61.3 °F 59% 30.04 in 10.0 mi SSE 8.1 mph - N/A   Clear
7:35 PM 76.1 °F 61.5 °F 60% 30.04 in 10.0 mi SE 6.9 mph - N/A   Clear
7:55 PM 75.2 °F 61.7 °F 63% 30.04 in 10.0 mi SSE 6.9 mph - N/A   Clear
8:15 PM 73.9 °F 61.7 °F 65% 30.04 in 10.0 mi SE 5.8 mph - N/A   Clear
8:35 PM 72.7 °F 61.7 °F 68% 30.03 in 10.0 mi SE 4.6 mph - N/A   Clear
8:55 PM 71.6 °F 62.6 °F 73% 30.03 in 10.0 mi SE 4.6 mph - N/A   Clear
9:15 PM 71.2 °F 61.7 °F 72% 30.04 in 10.0 mi SE 4.6 mph - N/A   Clear
9:35 PM 70.7 °F 61.9 °F 74% 30.05 in 10.0 mi SE 4.6 mph - N/A   Clear
9:55 PM 69.4 °F 61.7 °F 76% 30.05 in 10.0 mi SE 4.6 mph - N/A   Clear
10:15 PM 69.4 °F 61.7 °F 76% 30.05 in 10.0 mi SE 4.6 mph - N/A   Clear
10:35 PM 68.0 °F 61.5 °F 80% 30.05 in 10.0 mi ESE 5.8 mph - N/A   Clear
10:55 PM 68.0 °F 61.5 °F 80% 30.06 in 10.0 mi SE 3.5 mph - N/A   Clear
11:15 PM 68.0 °F 61.5 °F 80% 30.06 in 10.0 mi Calm Calm - N/A   Clear
11:35 PM 67.8 °F 61.5 °F 80% 30.06 in 10.0 mi Calm Calm - N/A   Clear
11:55 PM 66.7 °F 61.0 °F 82% 30.06 in 10.0 mi ESE 3.5 mph - N/A   Clear